QPF
0.00 0.00 0.00 0.00 0.00 0.00 0.01 0.04 0.09 0.09 0.01 0.00 0.00 0.00 0.00 0.00 0.00 0.00 0.00 0.00 0.00 0.00 0.00 0.00 0.00 0.00 0.00 0.00 0.00 0.00 0.00 0.00 0.00 0.00 0.00 0.00 0.00 0.00 0.00 0.00 0.00 0.00 0.00 0.00 0.00
0.00 0.00 0.00 0.00 0.00 0.00 0.01 0.02 0.04 0.09 0.03 0.00 0.00 0.00 0.00 0.00 0.00 0.00 0.00 0.00 0.00 0.00 0.00 0.00 0.00 0.00 0.00 0.00 0.00 0.00 0.00 0.00 0.00 0.00 0.00 0.00 0.00 0.00 0.00 0.00 0.00 0.00 0.00 0.00 0.00
0.00 0.00 0.01 0.01 0.00 0.00 0.01 0.00 0.02 0.04 0.01 0.00 0.00 0.00 0.00 0.00 0.00 0.00 0.00 0.00 0.00 0.00 0.00 0.00 0.00 0.00 0.00 0.00 0.00 0.00 0.00 0.00 0.00 0.00 0.00 0.00 0.00 0.00 0.00 0.00 0.00 0.00 0.00 0.00 0.00
0.01 0.00 0.00 0.01 0.00 0.00 0.00 0.00 0.04 0.09 0.05 0.01 0.00 0.00 0.00 0.00 0.00 0.00 0.00 0.00 0.00 0.00 0.00 0.00 0.00 0.00 0.00 0.00 0.00 0.00 0.00 0.00 0.00 0.00 0.00 0.00 0.00 0.00 0.00 0.00 0.00 0.00 0.00 0.00 0.00
0.01 0.01 0.01 0.00 0.00 0.00 0.00 0.00 0.02 0.06 0.06 0.02 0.00 0.00 0.00 0.00 0.00 0.00 0.00 0.00 0.00 0.00 0.00 0.00 0.00 0.00 0.00 0.00 0.00 0.00 0.00 0.00 0.00 0.00 0.00 0.00 0.00 0.00 0.00 0.00 0.00 0.00 0.00 0.00 0.00
0.02 0.01 0.00 0.00 0.00 0.00 0.01 0.01 0.03 0.06 0.01 0.01 0.01 0.00 0.00 0.00 0.00 0.00 0.00 0.00 0.00 0.00 0.00 0.00 0.00 0.00 0.00 0.00 0.00 0.00 0.00 0.00 0.00 0.00 0.00 0.00 0.00 0.00 0.00 0.00 0.00 0.00 0.00 0.00 0.00
0.03 0.01 0.00 0.00 0.00 0.00 0.00 0.01 0.06 0.06 0.02 0.01 0.00 0.00 0.00 0.00 0.00 0.00 0.00 0.00 0.00 0.00 0.00 0.00 0.00 0.00 0.00 0.00 0.00 0.00 0.00 0.00 0.00 0.00 0.00 0.00 0.00 0.00 0.00 0.00 0.00 0.00 0.00 0.00 0.00
0.02 0.02 0.00 0.00 0.00 0.00 0.00 0.07 0.07 0.04 0.03 0.01 0.00 0.00 0.00 0.00 0.00 0.00 0.00 0.00 0.00 0.00 0.00 0.00 0.00 0.00 0.00 0.00 0.00 0.00 0.00 0.00 0.00 0.00 0.00 0.00 0.00 0.00 0.00 0.00 0.00 0.00 0.00 0.00 0.00
0.01 0.02 0.01 0.00 0.00 0.01 0.14 0.08 0.17 0.09 0.02 0.02 0.02 0.00 0.00 0.00 0.00 0.00 0.00 0.00 0.00 0.00 0.00 0.00 0.00 0.00 0.00 0.00 0.01 0.00 0.00 0.00 0.00 0.00 0.00 0.00 0.00 0.00 0.00 0.00 0.00 0.00 0.00 0.00 0.00
0.00 0.00 0.00 0.00 0.00 0.01 0.48 0.13 0.21 0.14 0.01 0.00 0.01 0.01 0.00 0.00 0.00 0.00 0.00 0.00 0.00 0.00 0.00 0.00 0.00 0.00 0.00 0.01 0.01 0.00 0.00 0.00 0.01 0.00 0.05 0.05 0.00 0.00 0.01 0.00 0.00 0.00 0.00 0.00 0.00
0.03 0.00 0.01 0.00 0.00 0.04 0.32 0.16 0.20 0.21 0.05 0.01 0.00 0.00 0.00 0.00 0.00 0.00 0.00 0.00 0.00 0.00 0.00 0.00 0.00 0.00 0.00 0.00 0.00 0.00 0.00 0.00 0.00 0.00 0.03 0.02 0.00 0.00 0.01 0.04 0.04 0.02 0.00 0.00 0.01
0.03 0.02 0.01 0.00 0.00 0.00 0.08 0.18 0.20 0.16 0.12 0.04 0.00 0.00 0.00 0.00 0.00 0.00 0.00 0.00 0.00 0.00 0.00 0.00 0.00 0.00 0.00 0.00 0.02 0.02 0.02 0.01 0.00 0.00 0.03 0.05 0.01 0.00 0.00 0.02 0.05 0.07 0.03 0.02 0.07
0.01 0.02 0.01 0.00 0.00 0.01 0.04 0.17 0.17 0.13 0.14 0.07 0.01 0.00 0.00 0.00 0.00 0.00 0.00 0.00 0.00 0.00 0.00 0.00 0.00 0.00 0.00 0.00 0.02 0.01 0.01 0.00 0.01 0.01 0.01 0.02 0.00 0.00 0.01 0.03 0.04 0.04 0.04 0.06 0.12
0.02 0.06 0.02 0.00 0.01 0.01 0.06 0.28 0.10 0.05 0.10 0.09 0.01 0.00 0.00 0.00 0.00 0.00 0.00 0.00 0.00 0.00 0.00 0.00 0.00 0.00 0.01 0.01 0.07 0.07 0.00 0.01 0.01 0.04 0.02 0.00 0.00 0.00 0.00 0.01 0.02 0.03 0.06 0.09 0.10
0.01 0.02 0.01 0.02 0.02 0.01 0.02 0.05 0.07 0.01 0.07 0.05 0.00 0.00 0.00 0.00 0.00 0.00 0.00 0.00 0.00 0.00 0.00 0.00 0.00 0.00 0.04 0.03 0.06 0.07 0.01 0.01 0.01 0.02 0.05 0.00 0.13 0.00 0.00 0.00 0.00 0.02 0.02 0.01 0.01
0.02 0.00 0.00 0.01 0.00 0.00 0.01 0.01 0.00 0.01 0.03 0.01 0.00 0.00 0.00 0.00 0.00 0.00 0.00 0.00 0.00 0.00 0.00 0.00 0.00 0.01 0.01 0.00 0.03 0.04 0.03 0.06 0.03 0.04 0.04 0.00 0.09 0.03 0.00 0.00 0.00 0.01 0.01 0.01 0.06
0.17 0.03 0.00 0.01 0.02 0.00 0.00 0.00 0.03 0.05 0.01 0.00 0.00 0.00 0.00 0.00 0.00 0.00 0.00 0.00 0.00 0.01 0.00 0.00 0.00 0.00 0.00 0.00 0.01 0.11 0.17 0.28 0.25 0.25 0.09 0.00 0.00 0.01 0.00 0.00 0.00 0.05 0.03 0.14 0.26
0.09 0.05 0.01 0.02 0.04 0.00 0.00 0.00 0.05 0.05 0.00 0.00 0.00 0.00 0.00 0.00 0.00 0.00 0.00 0.00 0.00 0.00 0.01 0.01 0.00 0.00 0.01 0.01 0.13 0.06 0.14 0.23 0.19 0.04 0.04 0.01 0.01 0.01 0.01 0.04 0.01 0.05 0.06 0.30 0.39
0.05 0.03 0.01 0.02 0.01 0.00 0.00 0.05 0.10 0.02 0.00 0.00 0.01 0.01 0.00 0.00 0.00 0.00 0.00 0.00 0.00 0.01 0.03 0.01 0.01 0.00 0.00 0.00 0.01 0.02 0.11 0.08 0.10 0.01 0.03 0.10 0.10 0.12 0.09 0.12 0.05 0.04 0.08 0.13 0.18
0.02 0.01 0.02 0.01 0.01 0.00 0.01 0.14 0.03 0.00 0.00 0.00 0.00 0.00 0.00 0.00 0.00 0.00 0.00 0.00 0.00 0.01 0.00 0.00 0.02 0.00 0.00 0.00 0.00 0.00 0.00 0.00 0.06 0.04 0.05 0.10 0.05 0.16 0.20 0.18 0.14 0.14 0.16 0.18 0.10
0.00 0.00 0.01 0.01 0.00 0.00 0.02 0.10 0.03 0.01 0.02 0.00 0.00 0.00 0.00 0.00 0.00 0.00 0.00 0.00 0.01 0.01 0.00 0.00 0.02 0.01 0.00 0.00 0.00 0.00 0.00 0.00 0.00 0.00 0.00 0.00 0.05 0.09 0.08 0.07 0.09 0.07 0.07 0.07 0.10
0.00 0.02 0.02 0.00 0.00 0.02 0.06 0.05 0.05 0.01 0.00 0.00 0.00 0.00 0.00 0.00 0.00 0.00 0.00 0.00 0.00 0.00 0.00 0.00 0.00 0.00 0.00 0.00 0.00 0.00 0.00 0.00 0.00 0.00 0.00 0.00 0.02 0.00 0.00 0.01 0.02 0.01 0.01 0.00 0.00
0.00 0.01 0.00 0.01 0.03 0.05 0.01 0.00 0.00 0.00 0.00 0.00 0.00 0.00 0.00 0.00 0.00 0.00 0.00 0.00 0.00 0.00 0.00 0.00 0.00 0.00 0.00 0.00 0.00 0.00 0.00 0.00 0.00 0.00 0.00 0.00 0.00 0.00 0.00 0.00 0.01 0.01 0.00 0.00 0.00
0.00 0.00 0.00 0.00 0.01 0.00 0.00 0.00 0.00 0.00 0.00 0.00 0.00 0.00 0.00 0.00 0.00 0.00 0.00 0.00 0.00 0.00 0.00 0.00 0.00 0.00 0.00 0.00 0.00 0.00 0.00 0.00 0.00 0.00 0.00 0.00 0.00 0.00 0.00 0.00 0.00 0.00 0.00 0.00 0.00
0.00 0.00 0.00 0.00 0.00 0.00 0.00 0.00 0.00 0.00 0.00 0.00 0.00 0.00 0.00 0.00 0.00 0.00 0.00 0.00 0.00 0.00 0.00 0.00 0.00 0.00 0.00 0.00 0.00 0.00 0.00 0.00 0.00 0.00 0.00 0.00 0.00 0.00 0.00 0.00 0.00 0.00 0.00 0.00 0.00
0.00 0.00 0.00 0.00 0.00 0.00 0.00 0.00 0.00 0.00 0.00 0.00 0.00 0.00 0.00 0.00 0.00 0.00 0.00 0.00 0.00 0.00 0.00 0.00 0.00 0.00 0.00 0.00 0.00 0.00 0.00 0.00 0.00 0.00 0.00 0.00 0.00 0.00 0.00 0.00 0.00 0.00 0.00 0.00 0.00
0.00 0.00 0.00 0.00 0.00 0.00 0.00 0.00 0.00 0.00 0.00 0.00 0.00 0.00 0.00 0.00 0.00 0.00 0.00 0.00 0.00 0.00 0.00 0.00 0.00 0.00 0.00 0.00 0.00 0.00 0.00 0.00 0.00 0.00 0.00 0.00 0.00 0.00 0.00 0.00 0.00 0.00 0.00 0.00 0.00
MSLP
1018.09 1017.60 1017.23 1017.08 1016.43 1016.27 1016.07 1015.69 1015.32 1015.19 1015.24 1015.42 1015.81 1016.41 1016.28 1016.41 1016.83 1017.09 1016.55 1015.37 1015.15 1015.38 1015.54 1015.77 1015.67 1015.56 1015.61 1015.99 1016.31 1016.59 1017.15 1016.91 1016.44 1015.88 1014.70 1013.83 1012.97 1011.64 1011.27 1010.59 1009.58 1009.04 1008.99 1009.00 1009.60
1017.91 1017.35 1016.95 1016.71 1016.48 1016.14 1015.71 1015.46 1015.05 1014.81 1014.71 1015.14 1015.60 1015.87 1016.07 1016.53 1016.88 1016.29 1015.29 1014.96 1015.09 1015.28 1015.67 1015.76 1015.80 1015.82 1016.30 1016.34 1016.53 1016.78 1017.13 1016.77 1016.27 1015.62 1014.98 1014.30 1013.62 1012.88 1012.22 1011.21 1010.46 1009.62 1009.47 1009.27 1009.40
1017.26 1017.04 1016.72 1016.51 1016.31 1015.99 1015.56 1015.24 1014.94 1014.52 1014.37 1014.84 1015.40 1015.78 1016.10 1016.36 1016.69 1015.16 1014.42 1014.83 1015.10 1015.32 1015.51 1015.49 1015.62 1016.06 1016.54 1016.55 1016.66 1016.58 1016.48 1016.55 1016.15 1015.49 1015.06 1014.49 1013.66 1013.26 1012.54 1011.73 1011.58 1010.81 1010.27 1010.59 1009.54
1016.96 1016.61 1016.38 1016.16 1015.80 1015.73 1015.24 1014.95 1014.59 1014.37 1014.13 1014.46 1015.20 1015.63 1015.96 1016.46 1016.23 1014.84 1014.51 1014.92 1015.09 1015.48 1015.53 1015.50 1015.86 1016.34 1016.76 1016.87 1016.57 1016.53 1016.44 1016.40 1016.05 1015.49 1014.95 1014.37 1013.93 1013.01 1012.75 1012.29 1011.56 1011.25 1010.39 1010.09 1009.70
1016.53 1016.26 1015.97 1015.64 1015.40 1015.07 1014.87 1014.48 1014.16 1014.02 1014.10 1014.31 1014.89 1015.50 1016.23 1016.09 1015.03 1014.39 1014.54 1014.87 1015.41 1015.52 1015.69 1015.93 1016.15 1016.46 1016.82 1016.78 1016.74 1016.58 1016.44 1016.13 1015.87 1015.57 1015.04 1014.36 1013.70 1013.20 1011.96 1012.04 1011.26 1010.87 1010.35 1010.44 1009.95
1016.15 1015.84 1015.46 1015.30 1015.01 1014.59 1014.22 1013.76 1013.26 1013.20 1013.57 1013.91 1014.64 1015.36 1015.85 1015.46 1014.35 1014.26 1014.57 1015.21 1015.51 1015.78 1015.86 1016.03 1016.27 1016.40 1016.64 1016.88 1017.10 1016.92 1016.57 1016.20 1015.74 1015.40 1014.90 1014.62 1013.68 1013.35 1012.54 1011.86 1011.32 1010.52 1010.27 1009.97 1010.09
1015.92 1015.63 1015.36 1014.98 1014.54 1014.09 1013.42 1012.57 1012.24 1012.37 1013.28 1013.62 1014.59 1015.14 1015.32 1014.77 1014.05 1014.41 1014.66 1015.09 1015.54 1015.74 1016.02 1016.06 1016.22 1016.62 1016.93 1017.24 1017.12 1017.26 1017.13 1016.49 1015.71 1015.29 1015.02 1014.57 1013.10 1012.86 1012.65 1011.95 1011.02 1010.42 1009.86 1009.74 1009.46
1015.71 1015.35 1015.08 1014.74 1014.23 1013.72 1012.83 1011.27 1011.15 1012.35 1013.14 1013.96 1014.45 1015.00 1014.85 1014.11 1014.26 1014.58 1014.89 1015.11 1015.37 1015.70 1015.96 1016.15 1016.36 1016.97 1017.31 1017.54 1017.64 1017.97 1017.73 1017.01 1015.38 1015.10 1014.72 1014.71 1012.54 1012.20 1011.92 1011.63 1010.84 1010.15 1009.80 1009.53 1009.27
1015.34 1015.10 1014.95 1014.59 1014.22 1013.43 1012.55 1011.82 1012.49 1012.70 1013.11 1014.01 1014.67 1015.01 1014.77 1014.22 1014.41 1014.62 1014.75 1015.17 1015.45 1015.79 1016.10 1016.27 1016.55 1017.30 1017.68 1018.15 1018.43 1018.20 1018.14 1016.97 1015.61 1014.74 1014.27 1014.44 1012.59 1012.01 1011.39 1011.53 1010.85 1010.21 1009.89 1009.60 1009.22
1014.98 1014.71 1014.66 1014.50 1014.14 1013.62 1012.66 1012.25 1013.30 1013.81 1013.77 1014.46 1014.66 1015.53 1014.67 1014.17 1014.25 1014.59 1014.81 1015.08 1015.52 1016.03 1016.40 1016.64 1017.21 1017.60 1017.92 1018.51 1018.58 1018.54 1018.14 1016.84 1015.90 1014.45 1014.31 1014.11 1013.02 1012.18 1011.24 1011.31 1010.74 1010.44 1009.79 1009.44 1009.25
1014.61 1014.44 1014.39 1014.28 1014.13 1013.92 1013.91 1013.60 1014.33 1015.34 1014.13 1014.05 1013.86 1013.74 1013.51 1013.78 1014.32 1014.71 1014.89 1015.29 1015.97 1016.37 1016.71 1017.01 1017.67 1017.62 1017.73 1017.97 1017.94 1018.06 1017.63 1016.64 1015.07 1014.23 1014.62 1013.78 1012.72 1011.55 1010.99 1011.02 1010.82 1010.25 1009.63 1009.38 1009.28
1014.18 1014.23 1014.23 1014.12 1014.12 1014.07 1014.14 1014.49 1015.02 1015.22 1014.62 1014.12 1013.79 1013.62 1013.65 1013.82 1014.66 1014.93 1014.97 1015.84 1016.12 1016.49 1016.66 1017.15 1016.91 1016.54 1016.93 1017.15 1017.27 1017.29 1016.56 1015.48 1014.62 1013.99 1014.18 1013.46 1012.41 1011.49 1011.23 1011.15 1010.79 1010.41 1009.84 1009.43 1009.32
1013.71 1013.80 1013.88 1014.03 1014.02 1013.99 1014.27 1014.82 1014.88 1014.96 1014.47 1014.21 1014.03 1013.40 1013.80 1014.30 1014.17 1014.65 1015.21 1015.60 1015.88 1016.19 1016.38 1016.62 1015.91 1015.72 1016.27 1016.24 1016.44 1016.02 1015.54 1014.69 1014.43 1014.05 1013.81 1013.52 1012.53 1011.50 1011.08 1010.74 1010.50 1010.17 1009.66 1009.48 1009.43
1013.36 1013.53 1013.73 1013.78 1014.30 1014.23 1014.73 1014.81 1014.92 1015.03 1014.51 1014.78 1014.11 1013.56 1013.91 1014.09 1014.39 1014.51 1015.16 1015.62 1015.70 1015.91 1016.03 1015.91 1015.22 1015.28 1015.37 1015.27 1015.66 1014.89 1014.08 1013.73 1013.63 1013.69 1013.20 1012.71 1012.59 1011.60 1011.52 1011.31 1011.39 1010.89 1010.54 1010.20 1009.93
1012.90 1013.32 1013.65 1013.81 1014.42 1014.41 1014.83 1014.45 1014.68 1015.04 1014.66 1014.71 1013.98 1013.57 1013.82 1014.40 1014.64 1015.10 1015.42 1015.58 1015.65 1015.64 1016.13 1015.24 1014.98 1015.04 1014.86 1014.56 1014.67 1014.14 1013.41 1012.96 1013.00 1012.92 1012.82 1012.69 1012.61 1012.31 1011.81 1012.14 1012.22 1011.88 1011.29 1011.22 1011.32
1012.43 1013.20 1013.60 1013.98 1014.50 1014.46 1014.48 1014.34 1014.90 1015.07 1015.00 1014.83 1014.34 1014.04 1014.35 1014.42 1014.74 1015.35 1015.60 1015.57 1015.55 1015.64 1015.36 1015.13 1015.00 1014.76 1014.11 1013.86 1013.35 1013.09 1012.76 1012.63 1012.49 1012.48 1012.22 1011.98 1012.86 1012.87 1012.85 1013.04 1012.77 1012.47 1012.03 1011.91 1011.84
1012.28 1013.16 1013.75 1013.87 1014.48 1014.39 1014.40 1014.61 1014.76 1014.78 1015.53 1014.86 1014.34 1014.26 1014.18 1014.68 1015.18 1015.30 1015.52 1015.55 1015.43 1015.38 1015.06 1014.63 1014.40 1013.99 1013.86 1013.38 1012.27 1012.40 1012.37 1011.86 1012.07 1012.20 1011.78 1011.98 1012.48 1013.09 1013.29 1013.31 1013.24 1013.10 1013.12 1012.89 1012.69
1012.21 1013.56 1014.13 1014.20 1014.42 1014.68 1014.73 1014.60 1014.59 1015.14 1014.47 1014.03 1013.83 1014.27 1014.43 1014.59 1014.80 1015.13 1015.21 1014.93 1014.58 1014.89 1014.90 1014.48 1014.25 1013.66 1013.25 1012.94 1012.25 1011.70 1011.54 1011.23 1010.98 1011.12 1011.65 1011.77 1012.82 1013.42 1013.71 1013.64 1013.75 1013.62 1013.63 1013.10 1013.15
1012.50 1013.92 1014.80 1015.05 1014.63 1014.68 1014.74 1015.14 1015.41 1014.92 1013.71 1013.34 1013.83 1013.97 1014.26 1014.27 1014.51 1014.84 1014.69 1014.45 1014.24 1014.41 1014.60 1014.19 1013.66 1012.84 1012.51 1011.86 1011.64 1010.94 1010.66 1010.76 1010.73 1010.70 1011.36 1012.30 1013.15 1013.82 1014.11 1014.10 1014.19 1014.25 1014.36 1014.37 1014.11
1013.03 1014.09 1015.56 1015.66 1015.14 1015.12 1015.44 1015.50 1015.11 1014.15 1013.28 1013.06 1012.92 1013.04 1013.57 1013.79 1014.14 1014.24 1014.28 1014.13 1013.97 1013.86 1014.08 1013.91 1013.54 1012.20 1011.36 1010.83 1010.01 1010.15 1009.78 1010.13 1010.37 1010.40 1011.07 1012.11 1012.73 1013.59 1014.20 1014.45 1014.48 1014.54 1014.70 1014.92 1014.83
1013.90 1015.15 1016.52 1015.95 1015.76 1015.93 1016.03 1015.62 1014.84 1013.68 1013.07 1012.72 1011.91 1012.13 1012.70 1013.24 1013.56 1013.75 1014.04 1013.84 1013.45 1013.51 1013.66 1013.62 1013.40 1011.96 1011.30 1010.52 1010.06 1009.85 1009.51 1009.36 1009.54 1009.93 1010.83 1012.23 1013.48 1013.69 1013.89 1014.58 1014.92 1015.24 1015.45 1015.56 1015.29
1015.29 1016.14 1017.01 1016.59 1016.43 1016.36 1016.07 1015.28 1014.64 1012.97 1012.25 1011.65 1011.33 1011.59 1011.93 1012.43 1013.06 1013.08 1013.21 1013.00 1012.91 1012.88 1013.00 1012.69 1012.60 1012.29 1011.29 1010.30 1009.97 1010.01 1009.60 1009.35 1009.83 1010.68 1011.24 1012.66 1014.27 1014.04 1014.30 1014.75 1015.21 1015.74 1015.78 1015.58 1015.47
1016.37 1017.26 1017.24 1016.92 1016.79 1016.69 1015.43 1014.22 1013.36 1012.46 1011.98 1011.53 1011.37 1011.30 1011.43 1011.99 1012.43 1012.72 1012.66 1012.33 1012.32 1012.42 1012.63 1012.67 1012.64 1012.78 1011.91 1011.19 1010.32 1010.10 1009.60 1009.45 1009.75 1010.67 1012.11 1013.07 1014.67 1014.51 1014.46 1014.82 1015.31 1015.51 1015.58 1015.56 1015.48
1016.44 1017.47 1017.55 1017.09 1016.61 1016.34 1015.17 1014.03 1013.27 1012.43 1011.95 1011.49 1011.41 1011.13 1011.39 1011.81 1012.00 1012.39 1012.38 1012.04 1011.96 1012.08 1012.33 1012.69 1013.01 1013.18 1013.03 1012.50 1011.95 1011.43 1010.81 1010.27 1010.30 1011.50 1012.62 1013.11 1014.03 1014.65 1014.70 1014.80 1015.26 1015.67 1015.82 1015.96 1016.05
1015.98 1017.20 1016.90 1016.90 1016.43 1015.76 1014.48 1013.89 1013.42 1012.87 1012.19 1011.72 1011.93 1011.85 1011.84 1012.39 1012.53 1012.50 1012.20 1012.04 1011.92 1011.89 1012.14 1012.62 1013.55 1013.49 1013.07 1012.58 1012.18 1012.15 1011.99 1011.47 1011.37 1011.61 1012.20 1013.37 1013.75 1014.39 1014.86 1015.10 1015.15 1015.58 1015.88 1015.99 1016.14
1016.19 1016.78 1016.71 1016.20 1015.70 1014.97 1014.58 1014.28 1013.68 1013.34 1013.02 1013.26 1013.19 1012.91 1012.52 1013.24 1013.22 1012.92 1012.49 1012.45 1012.46 1012.27 1012.36 1012.74 1013.79 1014.11 1013.96 1013.23 1012.72 1012.74 1012.49 1011.99 1011.98 1012.28 1012.81 1013.18 1013.48 1013.49 1014.01 1014.77 1015.47 1015.81 1015.70 1016.04 1016.34
1016.15 1016.11 1016.50 1016.42 1016.03 1015.55 1015.18 1014.78 1014.24 1013.71 1013.87 1013.89 1013.63 1013.39 1013.55 1013.71 1013.59 1013.29 1012.63 1012.57 1012.61 1012.74 1012.94 1013.25 1014.07 1014.82 1014.79 1013.90 1013.34 1013.39 1013.20 1012.93 1012.90 1012.95 1013.03 1013.32 1013.35 1013.42 1014.27 1014.60 1015.00 1015.56 1015.92 1016.14 1016.26
Thickness
5552 5556 5560 5559 5566 5566 5569 5573 5578 5581 5583 5583 5580 5576 5580 5582 5581 5579 5582 5594 5594 5594 5594 5592 5593 5594 5593 5587 5586 5584 5573 5575 5583 5587 5600 5612 5616 5637 5643 5648 5664 5668 5671 5678 5675
5539 5543 5546 5548 5550 5553 5558 5561 5565 5569 5573 5572 5570 5570 5570 5569 5570 5574 5586 5587 5587 5586 5584 5583 5582 5583 5574 5576 5575 5568 5555 5567 5577 5582 5584 5595 5601 5610 5616 5632 5641 5651 5659 5666 5669
5525 5526 5530 5532 5534 5537 5542 5549 5553 5558 5563 5562 5558 5557 5558 5561 5560 5573 5580 5579 5578 5577 5578 5579 5577 5574 5567 5566 5565 5565 5561 5562 5567 5572 5576 5582 5592 5599 5604 5613 5620 5626 5636 5640 5658
5503 5508 5511 5515 5520 5522 5530 5535 5540 5545 5550 5551 5547 5545 5548 5548 5554 5565 5569 5567 5568 5566 5568 5569 5566 5559 5556 5554 5559 5553 5560 5557 5558 5560 5563 5569 5580 5588 5593 5601 5613 5618 5631 5636 5646
5488 5490 5493 5498 5503 5509 5514 5522 5529 5534 5537 5537 5537 5534 5533 5538 5550 5557 5559 5558 5555 5556 5555 5554 5551 5549 5544 5546 5546 5546 5549 5552 5550 5549 5552 5560 5569 5577 5591 5592 5603 5610 5620 5621 5633
5469 5473 5476 5480 5486 5494 5502 5510 5520 5524 5526 5528 5526 5524 5525 5530 5548 5548 5551 5546 5546 5543 5543 5543 5541 5542 5540 5538 5532 5536 5537 5539 5541 5539 5538 5537 5555 5559 5572 5579 5590 5601 5604 5608 5618
5447 5451 5456 5461 5470 5478 5490 5503 5512 5516 5514 5516 5513 5515 5518 5525 5541 5538 5540 5538 5536 5534 5532 5534 5533 5530 5527 5520 5525 5521 5516 5521 5525 5524 5522 5521 5549 5549 5556 5565 5576 5586 5596 5600 5611
5429 5432 5437 5442 5454 5463 5478 5497 5506 5504 5504 5501 5503 5506 5507 5525 5528 5528 5529 5529 5529 5527 5525 5524 5523 5517 5512 5511 5505 5496 5494 5484 5511 5514 5511 5510 5535 5541 5544 5547 5561 5572 5584 5592 5599
5414 5418 5421 5429 5439 5452 5466 5481 5483 5492 5494 5491 5492 5496 5502 5514 5517 5519 5522 5520 5520 5518 5516 5515 5514 5500 5497 5487 5469 5477 5444 5475 5493 5507 5507 5506 5519 5525 5534 5538 5550 5561 5570 5577 5587
5404 5406 5408 5415 5426 5441 5459 5468 5467 5475 5480 5480 5487 5483 5497 5507 5512 5512 5515 5516 5513 5510 5507 5504 5492 5483 5477 5461 5436 5435 5438 5475 5483 5505 5505 5506 5499 5511 5526 5529 5538 5545 5557 5567 5576
5400 5401 5401 5405 5414 5426 5442 5446 5455 5456 5467 5477 5487 5497 5504 5506 5507 5506 5509 5508 5504 5503 5490 5490 5475 5469 5459 5458 5465 5462 5465 5473 5492 5504 5497 5494 5506 5512 5522 5522 5525 5540 5552 5562 5569
5396 5395 5396 5400 5404 5414 5426 5434 5440 5449 5458 5473 5483 5493 5498 5502 5497 5500 5505 5496 5496 5485 5490 5481 5473 5481 5479 5477 5477 5474 5480 5486 5495 5502 5492 5493 5502 5512 5520 5520 5528 5535 5548 5559 5568
5396 5394 5392 5394 5400 5408 5418 5425 5437 5444 5461 5469 5478 5490 5491 5493 5500 5499 5498 5496 5494 5492 5490 5474 5493 5498 5486 5479 5480 5484 5488 5491 5491 5498 5489 5488 5499 5512 5522 5529 5535 5541 5552 5560 5564
5397 5393 5390 5391 5393 5401 5409 5421 5429 5439 5455 5458 5470 5482 5487 5492 5495 5500 5494 5494 5495 5496 5493 5491 5506 5505 5499 5488 5486 5493 5499 5499 5499 5498 5488 5499 5464 5519 5517 5522 5523 5535 5541 5548 5559
5398 5393 5390 5392 5391 5399 5409 5422 5431 5438 5457 5456 5469 5482 5487 5489 5491 5488 5487 5489 5491 5500 5491 5492 5499 5497 5498 5496 5493 5498 5506 5514 5503 5506 5510 5506 5515 5515 5524 5522 5515 5530 5543 5544 5547
5399 5394 5391 5391 5392 5399 5410 5421 5429 5439 5448 5449 5465 5476 5480 5489 5490 5484 5486 5491 5495 5493 5496 5497 5501 5498 5508 5507 5512 5514 5515 5511 5513 5515 5516 5512 5514 5515 5514 5513 5521 5532 5537 5543 5547
5398 5395 5391 5392 5395 5406 5418 5424 5416 5423 5442 5456 5462 5477 5488 5483 5482 5483 5484 5486 5490 5503 5496 5503 5506 5509 5507 5507 5523 5516 5510 5527 5525 5517 5531 5524 5523 5509 5512 5514 5520 5527 5525 5531 5538
5400 5393 5392 5398 5406 5415 5422 5423 5444 5443 5453 5469 5478 5479 5482 5490 5490 5487 5489 5491 5503 5504 5500 5504 5487 5510 5514 5511 5519 5522 5519 5527 5539 5532 5528 5532 5516 5517 5505 5513 5516 5521 5523 5531 5535
5411 5402 5397 5400 5413 5422 5429 5429 5437 5440 5473 5480 5479 5481 5485 5495 5491 5491 5497 5508 5514 5509 5508 5509 5516 5523 5519 5525 5528 5530 5530 5531 5535 5541 5532 5523 5514 5503 5502 5513 5519 5521 5522 5524 5529
5424 5417 5406 5411 5422 5429 5425 5440 5441 5462 5477 5485 5484 5493 5489 5496 5496 5500 5504 5511 5513 5515 5512 5516 5518 5529 5536 5539 5547 5540 5549 5540 5536 5544 5542 5536 5533 5530 5511 5513 5517 5520 5520 5522 5525
5433 5427 5414 5421 5427 5427 5430 5442 5449 5475 5483 5488 5502 5505 5502 5502 5506 5509 5502 5512 5518 5518 5516 5516 5519 5533 5539 5544 5545 5546 5546 5554 5558 5552 5548 5538 5530 5525 5525 5518 5517 5515 5517 5518 5523
5435 5435 5425 5429 5432 5432 5441 5449 5458 5489 5498 5505 5510 5514 5516 5514 5510 5518 5516 5516 5524 5527 5526 5529 5530 5513 5545 5556 5556 5552 5553 5558 5542 5550 5535 5528 5523 5532 5527 5522 5519 5517 5521 5528 5529
5441 5437 5436 5438 5428 5435 5457 5480 5490 5498 5503 5510 5515 5522 5528 5521 5521 5521 5523 5532 5535 5533 5531 5533 5529 5511 5531 5542 5553 5557 5563 5564 5567 5550 5540 5522 5518 5526 5526 5526 5520 5522 5527 5529 5531
5451 5443 5443 5450 5454 5456 5476 5493 5497 5508 5513 5521 5523 5532 5534 5532 5532 5529 5529 5538 5541 5540 5539 5536 5530 5524 5509 5533 5542 5548 5554 5563 5560 5528 5535 5530 5522 5521 5522 5525 5523 5521 5522 5522 5525
5466 5454 5464 5452 5468 5470 5498 5502 5505 5509 5519 5528 5529 5535 5539 5532 5535 5536 5541 5541 5546 5549 5546 5541 5527 5522 5547 5553 5551 5546 5549 5555 5554 5560 5543 5535 5538 5530 5525 5522 5528 5525 5524 5525 5524
5476 5476 5475 5478 5492 5506 5510 5508 5514 5519 5522 5522 5523 5528 5534 5528 5533 5536 5542 5539 5541 5545 5550 5545 5523 5533 5523 5551 5550 5545 5542 5552 5556 5554 5548 5548 5548 5546 5538 5531 5525 5521 5529 5528 5524
5490 5496 5492 5497 5499 5503 5508 5516 5522 5530 5528 5529 5534 5533 5532 5532 5532 5532 5546 5544 5547 5547 5543 5546 5523 5503 5518 5546 5550 5536 5537 5543 5547 5545 5550 5546 5550 5546 5539 5539 5532 5526 5524 5522 5524